Voltar ao catálogo

FENGYUN 1C DEB

AtivoPO
NORAD 30575·DEBRIS·🇨🇳 China

Lançado May 10, 1999 de Taiyuan Satellite Launch Center

Loading…

Próximas Passagens (próximas 24 horas)

TLE

AtualizadoSource: Space-Track

Época: Sep 14, 2026, 19:54 UTC

1 30575U 99025ALR 26257.82979921  .00001936  00000-0  60159-3 0  9997
2 30575  99.1771  13.5423 0054047 145.3219  16.7476 14.41466435 21843

Acompanhe FENGYUN 1C DEB em tempo real com AllMySat

Download on the App Store